When you browse on this site, cookies collect data to enhance your experience and personalize the content and advertising you see.
Visit our Privacy Policy to learn more. By continuing to use the site, you agree to this use of cookies and data.
  • In Hungary
  • List of Countries
  • For 7 days
  • Water Temperature
  • Weather Map
  • News
  • Weather Widgets
  • user-avatar
    Login

    Hourly Weather Cesky Tesin

    Today, 25 August, Sunday

    Time Temperature Precipitation Wind Pressure Humidity
    00:00 +19°C° 0.1 mm 2 mps 740 mmHg 87%
    01:00 +20°C° 0 mm 1 mps 740 mmHg 88%
    02:00 +20°C° 0.1 mm 1 mps 740 mmHg 89%
    03:00 +19°C° 0.1 mm 1 mps 740 mmHg 90%
    04:00 +19°C° 0.1 mm 1 mps 740 mmHg 90%
    05:00 +20°C° 0 mm 1 mps 740 mmHg 87%
    06:00 +21°C° 0 mm 1 mps 740 mmHg 85%
    07:00 +22°C° 0 mm 1 mps 740 mmHg 78%
    08:00 +24°C° 0 mm 1 mps 740 mmHg 72%
    09:00 +25°C° 0 mm 1 mps 740 mmHg 65%
    10:00 +27°C° 0 mm 1 mps 740 mmHg 58%
    11:00 +28°C° 0 mm 2 mps 740 mmHg 56%
    12:00 +29°C° 0 mm 2 mps 740 mmHg 53%
    13:00 +30°C° 0 mm 2 mps 740 mmHg 50%
    14:00 +30°C° 0.1 mm 2 mps 739 mmHg 52%
    15:00 +29°C° 0.1 mm 2 mps 739 mmHg 54%
    16:00 +29°C° 0.1 mm 2 mps 739 mmHg 56%
    17:00 +27°C° 0.2 mm 2 mps 739 mmHg 64%
    18:00 +26°C° 0.2 mm 2 mps 739 mmHg 71%
    19:00 +24°C° 0.2 mm 2 mps 739 mmHg 79%
    20:00 +23°C° 0 mm 2 mps 739 mmHg 80%
    21:00 +23°C° 0 mm 1 mps 739 mmHg 82%
    22:00 +22°C° 0 mm 1 mps 739 mmHg 83%
    23:00 +22°C° 0.1 mm 1 mps 739 mmHg 84%

    Tomorrow, 26 August, Monday

    Time Temperature Precipitation Wind Pressure Humidity
    00:00 +21°C° 0.1 mm 1 mps 739 mmHg 85%
    01:00 +21°C° 0.1 mm 1 mps 739 mmHg 86%
    02:00 +21°C° 0 mm 1 mps 739 mmHg 86%
    03:00 +20°C° 0 mm 1 mps 739 mmHg 87%
    04:00 +20°C° 0 mm 1 mps 738 mmHg 87%
    05:00 +21°C° 0 mm 1 mps 739 mmHg 83%
    06:00 +20°C° 0 mm 0 mps 739 mmHg 80%
    07:00 +21°C° 0 mm 0 mps 739 mmHg 77%
    08:00 +25°C° 0 mm 1 mps 739 mmHg 69%
    09:00 +27°C° 0 mm 1 mps 739 mmHg 62%
    10:00 +29°C° 0 mm 1 mps 739 mmHg 55%
    11:00 +30°C° 0 mm 1 mps 739 mmHg 52%
    12:00 +31°C° 0 mm 2 mps 739 mmHg 48%
    13:00 +32°C° 0 mm 2 mps 739 mmHg 45%
    14:00 +30°C° 0.7 mm 3 mps 739 mmHg 51%
    15:00 +29°C° 0.7 mm 3 mps 738 mmHg 57%
    16:00 +28°C° 0.7 mm 4 mps 738 mmHg 64%
    17:00 +26°C° 0.5 mm 3 mps 738 mmHg 68%
    18:00 +24°C° 0.5 mm 2 mps 738 mmHg 72%
    19:00 +22°C° 0.5 mm 1 mps 737 mmHg 77%
    20:00 +22°C° 0 mm 1 mps 738 mmHg 76%
    21:00 +22°C° 0 mm 1 mps 738 mmHg 76%
    22:00 +21°C° 0 mm 1 mps 738 mmHg 75%
    23:00 +21°C° 0 mm 1 mps 738 mmHg 76%

    Day after tomorrow, 27 August, Tuesday

    Time Temperature Precipitation Wind Pressure Humidity
    00:00 +21°C° 0 mm 1 mps 738 mmHg 76%
    01:00 +21°C° 0 mm 1 mps 738 mmHg 77%
    02:00 +21°C° 0 mm 1 mps 738 mmHg 77%
    03:00 +21°C° 0 mm 1 mps 738 mmHg 77%
    04:00 +21°C° 0 mm 1 mps 737 mmHg 77%
    05:00 +22°C° 0 mm 1 mps 738 mmHg 75%
    06:00 +23°C° 0 mm 1 mps 738 mmHg 73%
    07:00 +24°C° 0 mm 1 mps 738 mmHg 70%
    08:00 +26°C° 0 mm 1 mps 738 mmHg 63%
    09:00 +28°C° 0 mm 1 mps 738 mmHg 56%
    10:00 +30°C° 0 mm 1 mps 739 mmHg 49%
    11:00 +31°C° 0 mm 1 mps 739 mmHg 47%
    12:00 +32°C° 0 mm 1 mps 739 mmHg 44%
    13:00 +34°C° 0 mm 2 mps 739 mmHg 42%
    14:00 +32°C° 0.1 mm 2 mps 738 mmHg 44%
    15:00 +32°C° 0.1 mm 2 mps 738 mmHg 46%
    16:00 +32°C° 0.1 mm 1 mps 738 mmHg 48%
    17:00 +30°C° 0.3 mm 2 mps 738 mmHg 56%
    18:00 +28°C° 0.3 mm 2 mps 737 mmHg 63%
    19:00 +26°C° 0.3 mm 2 mps 737 mmHg 70%
    20:00 +25°C° 0.7 mm 2 mps 737 mmHg 73%
    21:00 +24°C° 0.7 mm 2 mps 738 mmHg 76%
    22:00 +24°C° 0.7 mm 1 mps 738 mmHg 79%
    23:00 +23°C° 0 mm 1 mps 738 mmHg 79%

    28 August, Wednesday

    Time Temperature Precipitation Wind Pressure Humidity
    00:00 +23°C° 0 mm 1 mps 738 mmHg 79%
    01:00 +22°C° 0 mm 1 mps 737 mmHg 79%
    02:00 +22°C° 0 mm 1 mps 737 mmHg 80%
    03:00 +22°C° 0 mm 1 mps 737 mmHg 80%
    04:00 +21°C° 0 mm 1 mps 737 mmHg 80%
    05:00 +22°C° 0 mm 1 mps 737 mmHg 78%
    06:00 +23°C° 0 mm 1 mps 737 mmHg 75%
    07:00 +25°C° 0 mm 1 mps 737 mmHg 73%
    08:00 +27°C° 0 mm 1 mps 737 mmHg 65%
    09:00 +29°C° 0 mm 2 mps 738 mmHg 56%
    10:00 +31°C° 0 mm 2 mps 738 mmHg 47%
    11:00 +32°C° 0 mm 2 mps 737 mmHg 45%
    12:00 +32°C° 0 mm 2 mps 737 mmHg 42%
    13:00 +34°C° 0 mm 2 mps 737 mmHg 39%
    14:00 +34°C° 0 mm 2 mps 737 mmHg 40%
    15:00 +33°C° 0 mm 1 mps 736 mmHg 42%
    16:00 +32°C° 0 mm 1 mps 736 mmHg 43%
    17:00 +31°C° 0 mm 1 mps 736 mmHg 48%
    18:00 +29°C° 0 mm 1 mps 736 mmHg 54%
    19:00 +27°C° 0 mm 1 mps 736 mmHg 60%
    20:00 +26°C° 0.1 mm 1 mps 736 mmHg 64%
    21:00 +25°C° 0.1 mm 1 mps 736 mmHg 67%
    22:00 +24°C° 0.1 mm 1 mps 736 mmHg 70%
    23:00 +24°C° 0.2 mm 1 mps 736 mmHg 72%

    29 August, Thursday

    Time Temperature Precipitation Wind Pressure Humidity
    00:00 +23°C° 0.2 mm 1 mps 736 mmHg 75%
    01:00 +23°C° 0.2 mm 1 mps 736 mmHg 77%
    02:00 +22°C° 0.1 mm 1 mps 736 mmHg 77%
    03:00 +22°C° 0.1 mm 1 mps 736 mmHg 78%
    04:00 +22°C° 0.1 mm 1 mps 736 mmHg 78%
    05:00 +23°C° 0.1 mm 1 mps 736 mmHg 76%
    06:00 +24°C° 0.1 mm 1 mps 736 mmHg 73%
    07:00 +25°C° 0.1 mm 1 mps 736 mmHg 71%
    08:00 +27°C° 0 mm 1 mps 736 mmHg 63%
    09:00 +29°C° 0 mm 1 mps 736 mmHg 54%
    10:00 +31°C° 0 mm 1 mps 736 mmHg 46%
    11:00 +32°C° 0 mm 1 mps 736 mmHg 43%
    12:00 +32°C° 0 mm 1 mps 736 mmHg 41%
    13:00 +33°C° 0 mm 1 mps 736 mmHg 38%
    14:00 +32°C° 0 mm 1 mps 736 mmHg 41%
    15:00 +32°C° 0 mm 1 mps 735 mmHg 45%
    16:00 +31°C° 0 mm 1 mps 735 mmHg 48%
    17:00 +28°C° 1 mm 2 mps 735 mmHg 59%
    18:00 +26°C° 1 mm 3 mps 736 mmHg 69%
    19:00 +24°C° 1 mm 3 mps 736 mmHg 80%
    20:00 +22°C° 1 mm 3 mps 736 mmHg 81%
    21:00 +21°C° 1 mm 3 mps 736 mmHg 82%
    22:00 +21°C° 1 mm 2 mps 736 mmHg 83%
    23:00 +21°C° 0.6 mm 2 mps 736 mmHg 83%

    30 August, Friday

    Time Temperature Precipitation Wind Pressure Humidity
    00:00 +22°C° 0.6 mm 1 mps 736 mmHg 83%
    01:00 +21°C° 0.6 mm 1 mps 736 mmHg 83%
    02:00 +21°C° 0.1 mm 1 mps 736 mmHg 85%
    03:00 +21°C° 0.1 mm 1 mps 737 mmHg 86%
    04:00 +21°C° 0.1 mm 1 mps 737 mmHg 87%
    05:00 +21°C° 0.4 mm 1 mps 737 mmHg 87%
    06:00 +22°C° 0.4 mm 1 mps 737 mmHg 87%
    07:00 +22°C° 0.4 mm 1 mps 737 mmHg 87%
    08:00 +23°C° 0.3 mm 2 mps 738 mmHg 84%
    09:00 +24°C° 0.3 mm 2 mps 738 mmHg 81%
    10:00 +25°C° 0.3 mm 2 mps 738 mmHg 78%
    11:00 +25°C° 0.6 mm 2 mps 738 mmHg 77%
    12:00 +25°C° 0.6 mm 2 mps 738 mmHg 76%
    13:00 +26°C° 0.6 mm 3 mps 738 mmHg 75%
    14:00 +26°C° 0.4 mm 2 mps 738 mmHg 74%
    15:00 +26°C° 0.4 mm 2 mps 738 mmHg 74%
    16:00 +25°C° 0.4 mm 2 mps 738 mmHg 74%
    17:00 +24°C° 0.2 mm 2 mps 738 mmHg 78%
    18:00 +23°C° 0.2 mm 1 mps 738 mmHg 82%
    19:00 +22°C° 0.2 mm 1 mps 738 mmHg 86%
    20:00 +22°C° 0 mm 1 mps 738 mmHg 88%
    21:00 +21°C° 0 mm 1 mps 739 mmHg 89%
    22:00 +21°C° 0 mm 1 mps 739 mmHg 91%
    23:00 +21°C° 0 mm 1 mps 739 mmHg 91%
    Show more